Location: Lake Almanor
(40.2485°N, 121.1442°W)
Time: 08:49:04
(UTC-08:00)

STARLINK-1108 - Pass Details

Date: 29 January 2020
Orbit: 348 x 351 km, 53.0° (Epoch: 18 February)

Event Time Altitude Azimuth Distance (km) Brightness Sun altitude
Rises 18:58:15 0° 315° (NW) 2,165 7.2 -19.0°
Reaches altitude 10° 19:00:22 10° 324° (NW) 1,320 5.9 -19.4°
Enters shadow 19:01:48 23° 343° (NNW) 815 4.6 -19.7°
